[[{"header":{"parameterUnit":"m.s-1","parameterCategory":2,"la1":30.2991,"la2":30.254,"lo1":-89.0895,"lo2":-89.0444,"dy":0.0017,"dx":0.0017,"nx":28,"ny":28,"refTime":"2024-07-07T03:00:00:Z","depth":"0","parameterNumber":2,"parameterNumberName":"U-component_of_CURRENTS"},"data":[0,0,0,0,0,0,0,0,0,0,0,0,0,0,0,0,0,0,0,0,0,0,0,0,0,0,0,0,0,0,0,0,0,0,0,0,0,0,0,0,0,0,0,0,0,0,0,0,0,0,0,0,0,0,0,0,0,0,0.4583,0.4583,0,0.4675,0.4677,0.4678,0.4663,0.4661,0.4659,0.4657,0.4728,0.4731,0.4735,0,0,0,0,0,0,0,0,0,0,0,0,0,0.4524,0.4525,0.4583,0.4583,0.4584,0.4675,0.4677,0.4679,0.4664,0.4661,0.4659,0.4656,0.4727,0.4731,0.4736,0,0,0,0,0,0,0,0,0,0,0,0,0,0.4581,0.4525,0.4583,0.4584,0.4585,0.4675,0.4677,0.4679,0.4664,0.4661,0.4658,0.4655,0.4725,0.4731,0.4736,0.4832,0,0,0.4753,0.4756,0,0,0,0,0,0,0,0,0.4577,0.4583,0.4583,0.4584,0.4585,0.465,0.4682,0.4728,0.4665,0.4639,0.4657,0.4654,0.4699,0.4707,0.4738,0.4836,0.4839,0.4754,0.4757,0.476,0.4761,0,0,0,0,0,0,0,0.4573,0.458,0.4624,0.4584,0.4585,0.4625,0.4629,0.4691,0.4689,0.4641,0.4639,0.4643,0.4699,0.4733,0.4739,0.484,0.4754,0.4759,0.4762,0.4765,0.5121,0.5127,0,0,0,0,0,0,0.4549,0.4576,0.4621,0.4627,0.4568,0.4627,0.4632,0.4637,0.4688,0.4692,0.4645,0.4642,0.4725,0.4733,0.4742,0.492,0.476,0.4765,0.4768,0.5115,0.5123,0.5129,0,0,0,0,0,0,0.4547,0.4552,0.4618,0.4599,0.4609,0.463,0.4636,0.464,0.4676,0.4691,0.4694,0.4677,0.4723,0.4734,0.4854,0.492,0.4768,0.4773,0.5108,0.5118,0.5126,0.5237,0,0,0,0,0,0,0.4545,0.4551,0.4555,0.4598,0.4609,0.4698,0.4639,0.4644,0.468,0.4677,0.472,0.4722,0.4721,0.4846,0.486,0.4925,0.4777,0.51,0.5112,0.5123,0.5226,0.5249,0.5269,0,0,0,0,0,0.4543,0.4557,0.4555,0.4561,0.4611,0.4701,0.4714,0.472,0.4685,0.4736,0.478,0.4721,0.4927,0.4857,0.4871,0.4938,0.5095,0.5109,0.5122,0.5216,0.5245,0.5268,0,0,0,0,0,0,0.4525,0.4558,0.4556,0.4575,0.4646,0.4697,0.4735,0.4739,0.4814,0.4805,0.4807,0.4819,0.496,0.4952,0.4874,0.5084,0.4999,0.5017,0.5066,0.5093,0.5114,0.5137,0.4782,0,0,0,0,0,0.4526,0.4554,0.4601,0.4628,0.4661,0.4705,0.4739,0.4753,0.4814,0.4841,0.4879,0.4935,0.5033,0.5059,0.5147,0.5251,0.5289,0.5308,0.533,0.5347,0.5384,0.5496,0.5529,0.5174,0.5174,0.5174,0,0,0.4522,0.4549,0.456,0.463,0.4678,0.4772,0.4721,0.4791,0.4884,0.4842,0.4984,0.5029,0.5091,0.5229,0.5285,0.5216,0.5481,0.5365,0.5378,0.5406,0.5514,0.5548,0.5578,0.5183,0.5182,0.518,0,0,0.4559,0.4567,0.4614,0.469,0.4771,0.482,0.4846,0.4925,0.4975,0.5109,0.5126,0.522,0.5333,0.5405,0.5449,0.5648,0.5616,0.5659,0.5751,0.5859,0.5888,0.5913,0.604,0.6076,0.5636,0.5637,0.5637,0,0.4559,0.4631,0.465,0.4741,0.4822,0.485,0.4961,0.5036,0.5149,0.5219,0.517,0.5399,0.5428,0.5617,0.5681,0.5693,0.5751,0.5629,0.5882,0.5908,0.5932,0.6055,0.6093,0.5644,0.5643,0.5642,0.5641,0,0.4646,0.4725,0.4775,0.4904,0.4993,0.51,0.5202,0.5303,0.5343,0.5402,0.5589,0.5647,0.5766,0.5792,0.5791,0.5993,0.5983,0.5913,0.5797,0.5974,0.6094,0.6131,0.5654,0.5651,0.5649,0.5647,0,0,0.4608,0.4799,0.4822,0.4932,0.5098,0.5188,0.5363,0.5536,0.564,0.5732,0.5876,0.6034,0.6021,0.6078,0.6086,0.616,0.6377,0.6103,0.6106,0.6198,0.6646,0.6483,0.6508,0.6331,0.6338,0.6343,0.6671,0,0.4692,0.49,0.4968,0.5194,0.5329,0.5434,0.5592,0.574,0.5838,0.598,0.605,0.6183,0.6142,0.6181,0.6271,0.6353,0.6477,0.6297,0.6491,0.6498,0.6303,0.6546,0.6166,0.6411,0.6707,0.6713,0.6718,0,0.4765,0.4913,0.5143,0.5383,0.5443,0.5564,0.582,0.5957,0.6144,0.6208,0.6332,0.6368,0.6547,0.6438,0.6704,0.6585,0.6662,0.67,0.6711,0.6545,0.6404,0.6282,0.6467,0.6298,0.6775,0.677,0.6766,0,0.4787,0.5033,0.5233,0.5325,0.5585,0.5699,0.5822,0.6022,0.6159,0.6342,0.6428,0.6608,0.6705,0.6827,0.6923,0.683,0.7182,0.7049,0.7008,0.6997,0.6709,0.666,0.6718,0.7283,0.7282,0.7281,0.728,0,0.4886,0.5053,0.5252,0.5378,0.5608,0.5732,0.5948,0.6093,0.6269,0.6418,0.6528,0.6665,0.6803,0.6988,0.7042,0.7166,0.7301,0.7108,0.7091,0.6741,0.6693,0.6553,0.6488,0.7293,0.7291,0.7288,0.7286,0,0.4958,0.5074,0.5324,0.5571,0.564,0.5808,0.6029,0.6149,0.6311,0.6508,0.657,0.6792,0.6998,0.7154,0.7373,0.7318,0.7222,0.7453,0.7044,0.697,0.6639,0.6594,0.6487,0.6311,0.7433,0.7431,0.743,0,0.5067,0.5194,0.5452,0.5567,0.5693,0.5899,0.6009,0.6177,0.6286,0.6564,0.6647,0.6912,0.705,0.7334,0.7294,0.7412,0.7234,0.7118,0.6848,0.6643,0.6585,0.6355,0.6199,0.6552,0.6543,0.6536,0.653,0,0.5298,0.5346,0.5513,0.5694,0.5828,0.5984,0.6132,0.6215,0.6375,0.6502,0.6675,0.6801,0.7031,0.6923,0.7056,0.7059,0.671,0.6971,0.6866,0.6017,0.5669,0.5479,0.6352,0.6468,0.6474,0.6478,0.6482,0.6484,0.5468,0.5559,0.5672,0.5829,0.5938,0.5987,0.5987,0.6103,0.6194,0.6235,0.6506,0.6501,0.6534,0.6607,0.6606,0.6275,0.6332,0.6012,0.6028,0.5857,0.5498,0.625,0.6249,0.6254,0.6258,0.6262,0.6265,0,0.5637,0.5637,0.5792,0.5864,0.5846,0.5922,0.5978,0.5862,0.5803,0.5951,0.6002,0.5886,0.5773,0.5781,0.5554,0.5351,0.5111,0.5218,0.4812,0.4747,0.5513,0.5277,0.493,0.493,0.493,0.493,0.4931,0.4931,0.5721,0.5767,0.5748,0.5702,0.5689,0.5502,0.5435,0.5333,0.5341,0.5149,0.5006,0.5057,0.5146,0.507,0.4814,0.4702,0.4413,0.4153,0.4288,0.4819,0.4893,0.4962,0.4725,0.4268,0.4267,0.3222,0.3215,0.3209]},{"header":{"parameterUnit":"m.s-1","parameterCategory":2,"la1":30.2991,"la2":30.254,"lo1":-89.0895,"lo2":-89.0444,"dy":0.0017,"dx":0.0017,"nx":28,"ny":28,"refTime":"2024-07-07T03:00:00:Z","depth":"0","parameterNumber":3,"parameterNumberName":"V-component_of_CURRENTS"},"data":[0,0,0,0,0,0,0,0,0,0,0,0,0,0,0,0,0,0,0,0,0,0,0,0,0,0,0,0,0,0,0,0,0,0,0,0,0,0,0,0,0,0,0,0,0,0,0,0,0,0,0,0,0,0,0,0,0,0,-0.0096,-0.0096,0,-0.0145,-0.0146,-0.0147,-0.0186,-0.0187,-0.0187,-0.0187,-0.0356,-0.0361,-0.0365,0,0,0,0,0,0,0,0,0,0,0,0,0,-0.0099,-0.0099,-0.0096,-0.0096,-0.0096,-0.0145,-0.0146,-0.0147,-0.0186,-0.0187,-0.0187,-0.0187,-0.0355,-0.036,-0.0365,0,0,0,0,0,0,0,0,0,0,0,0,0,-0.0121,-0.0099,-0.0096,-0.012,-0.0122,-0.0145,-0.0146,-0.0147,-0.0186,-0.0187,-0.0187,-0.0187,-0.0353,-0.036,-0.0366,-0.0403,0,0,-0.0386,-0.0389,0,0,0,0,0,0,0,0,-0.012,-0.0121,-0.0116,-0.0118,-0.0121,-0.0157,-0.0209,-0.0238,-0.0186,-0.0165,-0.0187,-0.0187,-0.0299,-0.031,-0.0321,-0.0411,-0.0419,-0.0387,-0.0391,-0.0394,-0.0396,0,0,0,0,0,0,0,-0.0118,-0.012,-0.0119,-0.0116,-0.0119,-0.0149,-0.0152,-0.0215,-0.0235,-0.0167,-0.0169,-0.017,-0.0301,-0.0315,-0.0326,-0.0421,-0.0387,-0.0393,-0.0397,-0.0399,-0.056,-0.056,0,0,0,0,0,0,-0.0102,-0.0118,-0.0117,-0.012,-0.0117,-0.0149,-0.0152,-0.0148,-0.0232,-0.0243,-0.017,-0.0171,-0.0303,-0.0318,-0.0332,-0.0352,-0.0394,-0.04,-0.0404,-0.056,-0.056,-0.056,0,0,0,0,0,0,-0.0102,-0.0101,-0.0115,-0.0118,-0.0121,-0.0148,-0.0143,-0.0149,-0.0156,-0.0232,-0.0246,-0.017,-0.0304,-0.0323,-0.0389,-0.036,-0.0403,-0.0409,-0.0559,-0.056,-0.056,-0.0411,0,0,0,0,0,0,-0.0101,-0.0101,-0.0096,-0.0116,-0.012,-0.0113,-0.0143,-0.0149,-0.0155,-0.0158,-0.0238,-0.0253,-0.0306,-0.0379,-0.0396,-0.037,-0.0414,-0.0559,-0.0559,-0.056,-0.0415,-0.0406,-0.0398,0,0,0,0,0,-0.0101,-0.008,-0.0095,-0.0096,-0.0111,-0.0112,-0.0117,-0.0139,-0.0155,-0.0149,-0.0215,-0.0251,-0.0394,-0.0385,-0.0404,-0.038,-0.0559,-0.0559,-0.056,-0.0419,-0.0408,-0.0398,0,0,0,0,0,0,-0.008,-0.0083,-0.01,-0.0082,-0.0093,-0.0117,-0.0112,-0.0132,-0.0176,-0.0186,-0.0261,-0.0282,-0.0329,-0.0387,-0.0374,-0.0432,-0.048,-0.0484,-0.0366,-0.0357,-0.0348,-0.0288,-0.042,0,0,0,0,0,-0.0073,-0.0059,-0.0073,-0.0062,-0.0061,-0.0089,-0.0094,-0.0108,-0.0146,-0.0164,-0.0219,-0.0288,-0.0348,-0.0376,-0.0442,-0.0476,-0.0474,-0.0475,-0.0466,-0.0458,-0.0426,-0.0417,-0.0402,-0.0563,-0.0563,-0.0562,0,0,-0.0061,-0.0063,-0.0056,-0.0057,-0.0069,-0.0048,-0.0092,-0.0088,-0.0079,-0.018,-0.0194,-0.0265,-0.0355,-0.0389,-0.0414,-0.043,-0.0408,-0.0459,-0.0451,-0.0423,-0.0416,-0.0399,-0.0385,-0.0563,-0.0563,-0.0563,0,0,-0.0016,-0.0032,0.0002,0.0006,0.0001,-0.002,-0.0013,-0.0032,-0.0049,-0.0081,-0.0147,-0.019,-0.0291,-0.0323,-0.0361,-0.0348,-0.0369,-0.0385,-0.028,-0.0271,-0.0256,-0.0243,-0.0185,-0.0168,-0.0371,-0.037,-0.037,0,-0.0005,0.0041,0.001,0.005,0.0063,0.0003,0.0047,0.0021,-0.0021,-0.0025,-0.0071,-0.0172,-0.0247,-0.0261,-0.0259,-0.0319,-0.0309,-0.0304,-0.0253,-0.024,-0.0229,-0.0173,-0.0156,-0.0363,-0.0364,-0.0365,-0.0366,0,0.0078,0.0112,0.0135,0.0162,0.0163,0.0191,0.016,0.015,0.0109,0.0085,0.0055,-0.004,-0.0085,-0.0125,-0.0192,-0.0155,-0.0169,-0.0243,-0.026,-0.0202,-0.0149,-0.0133,-0.0353,-0.0356,-0.0358,-0.036,0,0,0.0122,0.0182,0.0196,0.0232,0.0231,0.0245,0.0253,0.0255,0.0279,0.0216,0.0256,0.0148,0.0111,0.0066,-0.0011,-0.001,0.0077,-0.0082,-0.0085,0.0013,0.0142,0.0107,0.0119,0.001,0.0012,0.0014,0.0164,0,0.02,0.0305,0.0306,0.0389,0.0438,0.0397,0.0414,0.0399,0.0366,0.0384,0.0306,0.0295,0.0178,0.0171,0.0156,0.0088,0.0117,0.0046,0.004,0.0042,0.0032,0.0135,0.0121,0.0249,0.0179,0.0181,0.0183,0,0.0293,0.0353,0.0459,0.0517,0.0535,0.0565,0.059,0.06,0.059,0.0571,0.0556,0.0492,0.0495,0.0376,0.0351,0.0311,0.0254,0.02,0.0202,0.0131,0.0033,0.0167,0.0279,-0.0001,0.0206,0.0204,0.0202,0,0.0359,0.0458,0.0545,0.0573,0.0625,0.0657,0.0669,0.0665,0.0696,0.0713,0.0755,0.0708,0.0729,0.0637,0.0528,0.0447,0.0516,0.0384,0.0315,0.0313,0.0283,0.0273,0.0154,0.0392,0.0392,0.0392,0.0391,0,0.0446,0.0517,0.0591,0.065,0.0739,0.0743,0.0821,0.0825,0.0869,0.0958,0.0873,0.0959,0.0793,0.0793,0.0645,0.0569,0.0619,0.0385,0.0357,0.0333,0.0327,0.0061,-0.0091,0.0397,0.0396,0.0395,0.0394,0,0.0502,0.0551,0.0663,0.0754,0.0779,0.0843,0.0918,0.098,0.1015,0.1145,0.1173,0.1191,0.1215,0.1064,0.0966,0.0757,0.0515,0.061,0.0623,0.059,0.0185,0.0043,-0.0049,-0.0166,0.0548,0.0548,0.0548,0,0.0535,0.0611,0.0745,0.0801,0.0845,0.0931,0.0991,0.1042,0.113,0.1306,0.1401,0.1477,0.1589,0.1447,0.112,0.0918,0.0624,0.0676,0.0482,0.0209,0.003,-0.0086,-0.0187,0.0527,0.0527,0.0527,0.0527,0,0.0617,0.0673,0.0766,0.0881,0.0966,0.1072,0.1182,0.1285,0.1398,0.1574,0.1833,0.1963,0.1839,0.1643,0.1295,0.1084,0.0454,0.0663,0.0375,0.0019,-0.0104,-0.0245,0.0407,0.0527,0.0527,0.0527,0.0527,0.0527,0.0688,0.0737,0.0858,0.0959,0.1072,0.1231,0.1355,0.1529,0.1769,0.2106,0.2186,0.2496,0.2072,0.1629,0.1256,0.0492,0.0494,0.0198,0.0068,-0.001,-0.0196,0.0476,0.0536,0.0536,0.0536,0.0536,0.0537,0,0.0747,0.08,0.0912,0.1066,0.1226,0.1266,0.1495,0.1682,0.2034,0.2416,0.2718,0.2771,0.2213,0.1575,0.055,-0.0024,-0.0244,-0.0339,-0.0533,-0.0597,0.0008,-0.0077,-0.0141,-0.014,-0.014,-0.014,-0.014,-0.0139,0.0792,0.0873,0.091,0.1169,0.1303,0.1549,0.1707,0.2028,0.2349,0.2892,0.3186,0.3361,0.2841,0.0965,-0.0336,-0.0631,-0.1027,-0.1097,-0.1285,-0.0937,-0.0899,-0.0863,-0.0982,-0.1235,-0.1236,-0.1853,-0.1859,-0.1864]}],[{"header":{"parameterUnit":"m.s-1","parameterCategory":2,"la1":30.2991,"la2":30.254,"lo1":-89.0895,"lo2":-89.0444,"dy":0.0017,"dx":0.0017,"nx":28,"ny":28,"refTime":"2024-07-07T03:00:00:Z","depth":"2","parameterNumber":2,"parameterNumberName":"U-component_of_CURRENTS"},"data":[0,0,0,0,0,0,0,0,0,0,0,0,0,0,0,0,0,0,0,0,0,0,0,0,0,0,0,0,0,0,0,0,0,0,0,0,0,0,0,0,0,0,0,0,0,0,0,0,0,0,0,0,0,0,0,0,0,0,0.338,0.3381,0,0.3429,0.3429,0.3429,0.3422,0.3421,0.3421,0.3421,0.3445,0.3446,0.3447,0,0,0,0,0,0,0,0,0,0,0,0,0,0.3259,0.3261,0.338,0.3381,0.3383,0.3429,0.3429,0.3429,0.3422,0.3421,0.3421,0.3421,0.3445,0.3446,0.3447,0,0,0,0,0,0,0,0,0,0,0,0,0,0.3302,0.3261,0.338,0.3391,0.3393,0.3429,0.3429,0.3429,0.3422,0.3421,0.3421,0.3421,0.3445,0.3446,0.3447,0.3455,0,0,0.345,0.345,0,0,0,0,0,0,0,0,0.33,0.3306,0.3388,0.339,0.3393,0.3426,0.3396,0.3439,0.3422,0.3402,0.3421,0.3421,0.3442,0.3444,0.3441,0.3456,0.3457,0.345,0.3451,0.3451,0.3451,0,0,0,0,0,0,0,0.3297,0.3304,0.3391,0.339,0.3393,0.3387,0.3392,0.3403,0.3415,0.3404,0.3405,0.3424,0.3442,0.344,0.3442,0.3457,0.345,0.3451,0.3452,0.3452,0.3604,0.3607,0,0,0,0,0,0,0.3309,0.3301,0.3389,0.3393,0.3355,0.339,0.3395,0.3409,0.3415,0.3419,0.3424,0.3424,0.3438,0.3441,0.3443,0.3579,0.3451,0.3452,0.3453,0.3601,0.3605,0.3608,0,0,0,0,0,0,0.3306,0.3317,0.3388,0.3355,0.3365,0.3393,0.3408,0.341,0.3428,0.3433,0.3434,0.3444,0.3438,0.3441,0.3539,0.3575,0.3453,0.3453,0.3597,0.3602,0.3607,0.3771,0,0,0,0,0,0,0.3303,0.3315,0.3328,0.3356,0.3367,0.343,0.3409,0.3411,0.3443,0.3443,0.345,0.3451,0.3439,0.3539,0.3541,0.3574,0.3454,0.3592,0.3599,0.3605,0.3761,0.3781,0.3798,0,0,0,0,0,0.3298,0.3317,0.3328,0.334,0.3385,0.3433,0.3437,0.3451,0.3445,0.3463,0.3518,0.3451,0.3578,0.3545,0.3545,0.358,0.3589,0.3597,0.3605,0.3753,0.3777,0.3798,0,0,0,0,0,0,0.3272,0.332,0.3332,0.3366,0.3409,0.3435,0.3456,0.3466,0.3516,0.3533,0.3521,0.3529,0.3593,0.3588,0.3551,0.3643,0.3561,0.3569,0.3673,0.3696,0.3714,0.3754,0.3455,0,0,0,0,0,0.3275,0.3304,0.3351,0.3383,0.3406,0.3434,0.3455,0.3479,0.3528,0.3547,0.3558,0.3588,0.362,0.3667,0.3664,0.3757,0.3772,0.3771,0.379,0.3806,0.3841,0.3948,0.398,0.3634,0.3634,0.3634,0,0,0.3276,0.3309,0.3325,0.3381,0.341,0.3474,0.3445,0.3501,0.3586,0.3545,0.365,0.363,0.3649,0.3734,0.3764,0.375,0.3909,0.3815,0.3829,0.3857,0.3959,0.3993,0.4023,0.3639,0.3638,0.3637,0,0,0.3304,0.3323,0.3362,0.3392,0.3461,0.3511,0.3536,0.3586,0.3637,0.3713,0.3725,0.3785,0.3783,0.3873,0.3899,0.4032,0.3969,0.3982,0.4156,0.4259,0.4289,0.4315,0.4367,0.4396,0.4035,0.4035,0.4036,0,0.3302,0.3361,0.3382,0.3424,0.3486,0.3537,0.362,0.3683,0.3767,0.385,0.3756,0.3827,0.3857,0.4029,0.4097,0.4075,0.4097,0.4068,0.4286,0.4312,0.4336,0.4383,0.4414,0.4044,0.4043,0.4042,0.4042,0,0.3356,0.3404,0.343,0.3524,0.3599,0.3669,0.3782,0.3877,0.3909,0.3958,0.4051,0.406,0.4109,0.4125,0.4163,0.4365,0.4309,0.4261,0.4232,0.4382,0.442,0.4449,0.4057,0.4054,0.4051,0.4049,0,0,0.3344,0.3453,0.3454,0.3531,0.3662,0.3739,0.3925,0.4114,0.42,0.4231,0.4318,0.4422,0.4373,0.4408,0.4426,0.4568,0.478,0.4524,0.4525,0.458,0.4978,0.4776,0.4787,0.4765,0.4771,0.4776,0.4931,0,0.3388,0.3484,0.3559,0.3715,0.3796,0.3932,0.411,0.4287,0.4319,0.4402,0.4476,0.4524,0.4496,0.4502,0.4634,0.4725,0.4866,0.474,0.4821,0.4824,0.4631,0.4819,0.4428,0.4519,0.4959,0.4964,0.4967,0,0.3423,0.3492,0.364,0.3853,0.3909,0.4038,0.4296,0.4426,0.4598,0.4629,0.4667,0.4636,0.4868,0.4749,0.5006,0.4918,0.4989,0.5042,0.5047,0.4827,0.4678,0.4443,0.4555,0.5015,0.5011,0.5008,0.5005,0,0.3416,0.3564,0.3708,0.3755,0.3999,0.4155,0.4308,0.4499,0.4618,0.4747,0.4747,0.4904,0.4959,0.5083,0.5173,0.5121,0.5383,0.5304,0.5185,0.5168,0.4838,0.4781,0.5504,0.5504,0.5504,0.5503,0.5503,0,0.3433,0.3531,0.3711,0.3771,0.3985,0.4159,0.4326,0.4504,0.4663,0.4764,0.4829,0.4867,0.5054,0.516,0.5235,0.529,0.5435,0.5262,0.5225,0.4878,0.4825,0.5244,0.5212,0.5509,0.5508,0.5506,0.5506,0,0.3399,0.3498,0.3653,0.3896,0.3981,0.4117,0.4347,0.4423,0.4611,0.4701,0.4781,0.496,0.5121,0.522,0.5447,0.5357,0.545,0.5437,0.4991,0.4898,0.5146,0.5121,0.5323,0.5318,0.5314,0.531,0.5307,0,0.3418,0.3493,0.369,0.3753,0.3863,0.4033,0.4155,0.4401,0.4431,0.4716,0.4748,0.4981,0.5024,0.521,0.5208,0.5274,0.5424,0.4908,0.475,0.52,0.5144,0.5125,0.5106,0.4381,0.4371,0.4362,0.4355,0,0.3465,0.3517,0.3588,0.367,0.379,0.3909,0.4056,0.4096,0.4352,0.4456,0.4606,0.4706,0.4858,0.4736,0.4821,0.4801,0.4852,0.4729,0.5382,0.446,0.4316,0.4258,0.4271,0.428,0.4287,0.4293,0.4297,0.43,0.3482,0.3446,0.3494,0.3598,0.3679,0.3756,0.375,0.3865,0.3966,0.4054,0.429,0.4297,0.4382,0.4283,0.4188,0.4125,0.4452,0.4251,0.4277,0.4312,0.4148,0.4002,0.3874,0.3879,0.3884,0.3888,0.3891,0,0.3375,0.3353,0.3434,0.3459,0.3457,0.3609,0.3661,0.3559,0.3534,0.3713,0.3775,0.352,0.3472,0.36,0.3376,0.3346,0.3308,0.3222,0.3157,0.3237,0.3306,0.3089,0.2536,0.2531,0.2527,0.2523,0,0,0.3328,0.326,0.3282,0.3266,0.3282,0.3212,0.3188,0.3089,0.3089,0.3003,0.3026,0.3267,0.3461,0.2939,0.2881,0.2675,0.2922,0.2564,0.3661,0.3664,0.3727,0.3923,0.368,0,0,0,0,0]},{"header":{"parameterUnit":"m.s-1","parameterCategory":2,"la1":30.2991,"la2":30.254,"lo1":-89.0895,"lo2":-89.0444,"dy":0.0017,"dx":0.0017,"nx":28,"ny":28,"refTime":"2024-07-07T03:00:00:Z","depth":"2","parameterNumber":3,"parameterNumberName":"V-component_of_CURRENTS"},"data":[0,0,0,0,0,0,0,0,0,0,0,0,0,0,0,0,0,0,0,0,0,0,0,0,0,0,0,0,0,0,0,0,0,0,0,0,0,0,0,0,0,0,0,0,0,0,0,0,0,0,0,0,0,0,0,0,0,0,0.002,0.0019,0,-0.0019,-0.0019,-0.002,-0.0058,-0.0059,-0.0059,-0.006,-0.0151,-0.0153,-0.0155,0,0,0,0,0,0,0,0,0,0,0,0,0,0.0017,0.0018,0.002,0.0019,0.0019,-0.0019,-0.002,-0.002,-0.0058,-0.0059,-0.0059,-0.006,-0.015,-0.0152,-0.0155,0,0,0,0,0,0,0,0,0,0,0,0,0,0.0002,0.0018,0.002,-0.0005,-0.0007,-0.0019,-0.002,-0.002,-0.0058,-0.0059,-0.0059,-0.006,-0.0149,-0.0152,-0.0155,-0.0158,0,0,-0.0164,-0.0165,0,0,0,0,0,0,0,0,0.0003,0.0003,-0.0001,-0.0003,-0.0006,-0.0035,-0.0054,-0.0069,-0.0058,-0.0039,-0.006,-0.0061,-0.0116,-0.0122,-0.0127,-0.0162,-0.0166,-0.0164,-0.0166,-0.0167,-0.0168,0,0,0,0,0,0,0,0.0005,0.0004,0.0004,-0.0001,-0.0004,-0.0029,-0.0031,-0.0057,-0.0074,-0.004,-0.0043,-0.0047,-0.0118,-0.0124,-0.0129,-0.0168,-0.0164,-0.0167,-0.0169,-0.017,-0.0211,-0.021,0,0,0,0,0,0,0.0013,0.0005,0.0006,0.0003,-0.0003,-0.0028,-0.0031,-0.0025,-0.0072,-0.008,-0.0047,-0.0049,-0.0118,-0.0126,-0.0133,-0.0125,-0.0167,-0.017,-0.0172,-0.0212,-0.0211,-0.021,0,0,0,0,0,0,0.0013,0.0013,0.0007,0.0002,-0.0,-0.0027,-0.002,-0.0025,-0.0028,-0.0077,-0.0085,-0.0044,-0.0119,-0.0129,-0.0163,-0.013,-0.0171,-0.0174,-0.0212,-0.0211,-0.0211,-0.012,0,0,0,0,0,0,0.0013,0.0014,0.002,0.0004,0.0,0.0013,-0.0019,-0.0025,-0.0029,-0.0033,-0.0077,-0.0086,-0.0121,-0.0159,-0.0166,-0.0135,-0.0176,-0.0213,-0.0212,-0.0211,-0.0124,-0.0116,-0.0109,0,0,0,0,0,0.0013,0.0036,0.002,0.002,0.001,0.0014,0.0011,-0.0012,-0.0028,-0.0019,-0.0065,-0.0085,-0.0155,-0.0161,-0.017,-0.0138,-0.0214,-0.0212,-0.0211,-0.0127,-0.0117,-0.0109,0,0,0,0,0,0,0.0035,0.0033,0.0016,0.0035,0.0026,0.0008,0.0016,-0.0003,-0.003,-0.0037,-0.0087,-0.01,-0.0105,-0.0144,-0.0149,-0.0147,-0.0183,-0.0183,-0.0116,-0.0107,-0.01,-0.0061,-0.0179,0,0,0,0,0,0.0043,0.0058,0.0046,0.0058,0.0061,0.0038,0.0035,0.0021,-0.0004,-0.0015,-0.0049,-0.0085,-0.0104,-0.0126,-0.0145,-0.0159,-0.0187,-0.0143,-0.0135,-0.0129,-0.0104,-0.0136,-0.0129,-0.0205,-0.0205,-0.0205,0,0,0.0053,0.0053,0.006,0.0063,0.0057,0.0082,0.0036,0.0043,0.0055,-0.0022,-0.0019,-0.0054,-0.01,-0.0105,-0.0111,-0.0138,-0.0123,-0.0127,-0.0121,-0.0099,-0.0133,-0.0126,-0.0119,-0.0204,-0.0204,-0.0205,0,0,0.0097,0.0086,0.0122,0.0127,0.0125,0.0112,0.0119,0.0105,0.0091,0.0084,0.0039,0.0016,-0.0019,-0.0045,-0.0063,-0.0031,-0.0072,-0.0036,0.002,-0.0012,-0.0005,0.0,-0.0027,-0.0025,-0.0046,-0.0045,-0.0045,0,0.0107,0.0156,0.013,0.0171,0.0187,0.0135,0.0182,0.0162,0.0133,0.0144,0.01,0.0071,0.0019,0.0023,0.0023,-0.0009,-0.0038,-0.0009,-0.0001,0.0004,0.0008,-0.0021,-0.002,-0.0041,-0.0041,-0.0042,-0.0042,0,0.0186,0.0225,0.025,0.0285,0.0291,0.0324,0.0298,0.0298,0.0272,0.0264,0.0266,0.0183,0.0176,0.0144,0.0086,0.0096,0.0064,0.0024,-0.0018,0.0022,-0.0012,-0.0012,-0.0034,-0.0036,-0.0037,-0.0038,0,0,0.022,0.0294,0.0306,0.036,0.0361,0.0391,0.0399,0.0423,0.048,0.0408,0.046,0.0382,0.035,0.0325,0.0246,0.0187,0.0168,0.0114,0.011,0.0097,0.0101,0.0052,0.0046,0.0123,0.0123,0.0124,0.0066,0,0.0296,0.0421,0.0414,0.0521,0.0592,0.0552,0.0585,0.059,0.0588,0.062,0.0517,0.0533,0.0414,0.0407,0.0336,0.022,0.0172,0.0188,0.0057,0.0054,0.0013,0.0046,0.0073,0.0021,0.0065,0.0065,0.0065,0,0.0379,0.0464,0.059,0.0692,0.0717,0.0751,0.0829,0.0857,0.0863,0.0858,0.0834,0.0764,0.0673,0.0559,0.0389,0.0402,0.0274,0.0162,0.0157,0.0085,0.0005,-0.0013,0.0018,0.0064,0.0064,0.0064,0.0064,0,0.0464,0.0584,0.0699,0.0733,0.0826,0.0864,0.0901,0.0942,0.0994,0.101,0.1057,0.0943,0.0895,0.0711,0.0472,0.0434,0.028,0.0204,0.0045,0.004,0.0027,0.002,0.0107,0.0107,0.0107,0.0107,0.0107,0,0.0561,0.0658,0.0756,0.0832,0.0969,0.0986,0.1131,0.1147,0.1194,0.1311,0.1194,0.1234,0.0928,0.0795,0.0555,0.0311,0.0352,0.0077,0.0028,0.0057,0.0054,0.006,0.0056,0.0105,0.0105,0.0106,0.0106,0,0.0645,0.0699,0.086,0.0988,0.1016,0.1128,0.1241,0.1357,0.1392,0.1527,0.1523,0.1431,0.127,0.0972,0.0677,0.0442,0.0192,0.0099,0.0152,0.011,-0.0049,-0.0049,-0.0083,-0.0085,-0.0087,-0.0088,-0.009,0,0.0701,0.0789,0.0979,0.1057,0.1111,0.1261,0.1359,0.1429,0.1563,0.1672,0.1746,0.1619,0.1568,0.1114,0.0673,0.0264,0.0214,0.0022,-0.0056,-0.0021,-0.0066,-0.0062,-0.0059,-0.0039,-0.0039,-0.004,-0.004,0,0.0805,0.0871,0.1007,0.1189,0.1305,0.1481,0.1635,0.1755,0.1888,0.1989,0.2093,0.2037,0.1629,0.12,0.0634,0.0353,0.0076,-0.0005,0.0043,-0.0001,0.0014,-0.0028,-0.0025,-0.0046,-0.0045,-0.0045,-0.0045,-0.0044,0.0879,0.0981,0.1145,0.1315,0.1479,0.1697,0.1857,0.2023,0.2223,0.236,0.2313,0.2214,0.1753,0.0988,0.0535,0.0041,0.0051,-0.014,-0.0135,-0.013,-0.0121,-0.0111,-0.0191,-0.0191,-0.0191,-0.0192,-0.0192,0,0.0968,0.1063,0.1232,0.1471,0.1693,0.1753,0.2035,0.2182,0.243,0.2473,0.2495,0.2027,0.1563,0.1045,0.0311,-0.012,-0.0152,-0.0254,-0.0191,-0.0183,-0.0177,-0.0168,-0.0252,-0.0253,-0.0255,-0.0256,0,0,0.0994,0.1163,0.1251,0.1599,0.178,0.207,0.2247,0.2409,0.2503,0.2524,0.2414,0.2237,0.1659,0.1118,0.0558,0.0157,0.008,0.0067,0.0159,0.0308,0.032,-0.007,-0.0043,0,0,0,0,0]}],[{"header":{"parameterUnit":"m.s-1","parameterCategory":2,"la1":30.2991,"la2":30.254,"lo1":-89.0895,"lo2":-89.0444,"dy":0.0017,"dx":0.0017,"nx":28,"ny":28,"refTime":"2024-07-07T03:00:00:Z","depth":"4","parameterNumber":2,"parameterNumberName":"U-component_of_CURRENTS"},"data":[0,0,0,0,0,0,0,0,0,0,0,0,0,0,0,0,0,0,0,0,0,0,0,0,0,0,0,0,0,0,0,0,0,0,0,0,0,0,0,0,0,0,0,0,0,0,0,0,0,0,0,0,0,0,0,0,0,0,0.1904,0.1905,0,0.1926,0.1925,0.1925,0.1956,0.1958,0.1959,0.196,0.1968,0.1967,0.1966,0,0,0,0,0,0,0,0,0,0,0,0,0,0.1834,0.1834,0.1904,0.1905,0.1906,0.1926,0.1925,0.1925,0.1956,0.1958,0.1959,0.1961,0.1969,0.1967,0.1966,0,0,0,0,0,0,0,0,0,0,0,0,0,0.1851,0.1834,0.1903,0.1931,0.1935,0.1926,0.1925,0.1924,0.1955,0.1958,0.196,0.1962,0.1969,0.1967,0.1966,0.1911,0,0,0.196,0.196,0,0,0,0,0,0,0,0,0.185,0.1852,0.1926,0.193,0.1934,0.1949,0.1904,0.1923,0.1955,0.1937,0.196,0.1963,0.1966,0.1964,0.1949,0.1912,0.1912,0.196,0.1959,0.1958,0.1958,0,0,0,0,0,0,0,0.1849,0.1852,0.1902,0.1927,0.1932,0.1925,0.1929,0.1907,0.1931,0.1939,0.1944,0.1961,0.1966,0.1951,0.195,0.1912,0.196,0.1959,0.1958,0.1957,0.1974,0.1976,0,0,0,0,0,0,0.1867,0.185,0.1902,0.1904,0.1908,0.1925,0.193,0.1934,0.1931,0.1936,0.196,0.1963,0.1953,0.1952,0.195,0.2027,0.1958,0.1957,0.1956,0.1973,0.1974,0.1976,0,0,0,0,0,0,0.1865,0.1871,0.1901,0.1887,0.1891,0.1926,0.1929,0.1933,0.1969,0.1949,0.1952,0.1999,0.1954,0.1953,0.1957,0.2023,0.1956,0.1955,0.1971,0.1973,0.1975,0.209,0,0,0,0,0,0,0.1862,0.1869,0.189,0.1887,0.1893,0.1925,0.1928,0.1933,0.1978,0.1984,0.1982,0.1982,0.1956,0.1959,0.1955,0.2019,0.1953,0.1969,0.1972,0.1975,0.2084,0.2096,0.2106,0,0,0,0,0,0.1859,0.1877,0.189,0.1899,0.1917,0.1927,0.1929,0.1953,0.1979,0.1993,0.1988,0.1985,0.1976,0.1957,0.1952,0.2018,0.1968,0.1971,0.1974,0.2079,0.2093,0.2105,0,0,0,0,0,0,0.1852,0.1883,0.1897,0.1923,0.1942,0.1938,0.1959,0.1979,0.1984,0.2002,0.1981,0.1979,0.2022,0.1988,0.1969,0.2031,0.1981,0.1983,0.2063,0.2075,0.2086,0.2137,0.1952,0,0,0,0,0,0.1862,0.1887,0.1908,0.193,0.1944,0.196,0.1976,0.1997,0.2,0.2008,0.2006,0.2007,0.202,0.2023,0.202,0.2028,0.2049,0.2073,0.2084,0.2093,0.2132,0.2202,0.2224,0.1987,0.1987,0.1987,0,0,0.1864,0.1888,0.1902,0.1932,0.1945,0.1947,0.1973,0.2012,0.2025,0.2004,0.2024,0.2048,0.2033,0.206,0.2077,0.2045,0.217,0.2098,0.2106,0.214,0.2209,0.2232,0.2253,0.1989,0.1989,0.1989,0,0,0.1864,0.1903,0.1917,0.1933,0.1977,0.1977,0.2002,0.2025,0.2057,0.2076,0.2085,0.2153,0.2129,0.2157,0.2161,0.2225,0.2233,0.2226,0.2314,0.2382,0.2404,0.2422,0.2477,0.25,0.2222,0.2222,0.2222,0,0.1871,0.1885,0.1923,0.1933,0.1946,0.1993,0.1996,0.2021,0.2047,0.2093,0.2102,0.219,0.2187,0.226,0.2294,0.2259,0.2287,0.2267,0.2401,0.242,0.2437,0.2489,0.2513,0.2228,0.2227,0.2226,0.2226,0,0.1853,0.1886,0.1897,0.1916,0.193,0.1953,0.1986,0.2023,0.2079,0.2133,0.2258,0.2287,0.2353,0.2372,0.2353,0.2485,0.2463,0.2417,0.2376,0.2469,0.2516,0.2539,0.2236,0.2234,0.2232,0.2231,0,0,0.1821,0.1875,0.1888,0.1894,0.1932,0.1934,0.1971,0.2032,0.2097,0.2197,0.2312,0.2399,0.2497,0.2511,0.2536,0.261,0.2761,0.2578,0.2579,0.2648,0.2916,0.2696,0.2699,0.2738,0.2743,0.2747,0.2899,0,0.1802,0.1814,0.1851,0.1858,0.1853,0.191,0.1945,0.2021,0.2104,0.2225,0.238,0.2514,0.2522,0.2613,0.2687,0.2747,0.2827,0.2724,0.2804,0.2807,0.2612,0.272,0.2762,0.2916,0.2921,0.2925,0.2928,0,0.1768,0.178,0.1785,0.1838,0.1849,0.1872,0.1946,0.1997,0.2179,0.2274,0.2458,0.2593,0.2786,0.2771,0.2954,0.2888,0.293,0.2969,0.2973,0.2751,0.2629,0.2802,0.2969,0.2965,0.2962,0.296,0.2957,0,0.1692,0.174,0.1743,0.1751,0.1809,0.1853,0.191,0.204,0.2126,0.2363,0.2486,0.2705,0.2871,0.2966,0.3073,0.3036,0.3243,0.3179,0.3028,0.3012,0.3115,0.3093,0.3321,0.3321,0.3321,0.332,0.332,0,0.1634,0.1637,0.1725,0.172,0.1757,0.1831,0.1924,0.2007,0.2204,0.2345,0.2551,0.2705,0.2939,0.3084,0.3126,0.3144,0.3284,0.3086,0.3049,0.3155,0.3136,0.3131,0.3107,0.3326,0.3324,0.3323,0.3322,0,0.1528,0.1585,0.1582,0.1673,0.1719,0.1746,0.1923,0.2002,0.2195,0.2384,0.2504,0.2778,0.2962,0.3116,0.3292,0.3203,0.3245,0.3212,0.3343,0.3304,0.2961,0.2942,0.3072,0.3066,0.3061,0.3056,0.3053,0,0.1439,0.1446,0.1542,0.1549,0.1597,0.1687,0.1772,0.1979,0.2084,0.24,0.2496,0.2786,0.2942,0.3015,0.3154,0.3219,0.3179,0.3175,0.3064,0.2991,0.2944,0.2932,0.2919,0.3044,0.3043,0.3041,0.304,0,0.1284,0.1363,0.1399,0.1433,0.1501,0.1561,0.1718,0.1797,0.2065,0.2268,0.2472,0.2613,0.2796,0.2925,0.2997,0.3026,0.316,0.3119,0.313,0.3025,0.2958,0.2914,0.2908,0.3022,0.3024,0.3026,0.3027,0,0.1186,0.1198,0.1291,0.1314,0.1374,0.142,0.1515,0.169,0.1842,0.2219,0.2285,0.2548,0.2792,0.2827,0.2883,0.2901,0.2861,0.2763,0.2791,0.2812,0.2649,0.2521,0.2456,0,0,0,0,0,0.1082,0.1135,0.1151,0.118,0.1233,0.1292,0.1474,0.1596,0.1895,0.1987,0.2138,0.2306,0.2449,0.2576,0.2546,0.2732,0.2837,0.2679,0.2728,0.292,0.2941,0.2769,0,0,0,0,0,0,0.0998,0.107,0.1129,0.1081,0.1087,0.1154,0.1275,0.1465,0.1543,0.1843,0.1941,0.2156,0.2325,0.2453,0.2503,0.2536,0.2516,0.2839,0.2833,0.2908,0.2928,0.2945,0.2775,0,0,0,0,0]},{"header":{"parameterUnit":"m.s-1","parameterCategory":2,"la1":30.2991,"la2":30.254,"lo1":-89.0895,"lo2":-89.0444,"dy":0.0017,"dx":0.0017,"nx":28,"ny":28,"refTime":"2024-07-07T03:00:00:Z","depth":"4","parameterNumber":3,"parameterNumberName":"V-component_of_CURRENTS"},"data":[0,0,0,0,0,0,0,0,0,0,0,0,0,0,0,0,0,0,0,0,0,0,0,0,0,0,0,0,0,0,0,0,0,0,0,0,0,0,0,0,0,0,0,0,0,0,0,0,0,0,0,0,0,0,0,0,0,0,0.0106,0.0105,0,0.0096,0.0096,0.0096,0.0075,0.0075,0.0074,0.0074,0.0055,0.0055,0.0055,0,0,0,0,0,0,0,0,0,0,0,0,0,0.0085,0.0085,0.0106,0.0105,0.0105,0.0096,0.0096,0.0096,0.0076,0.0075,0.0074,0.0074,0.0055,0.0055,0.0055,0,0,0,0,0,0,0,0,0,0,0,0,0,0.0087,0.0086,0.0106,0.0093,0.0092,0.0096,0.0096,0.0096,0.0076,0.0075,0.0074,0.0073,0.0055,0.0055,0.0055,0.0071,0,0,0.0055,0.0055,0,0,0,0,0,0,0,0,0.0087,0.0088,0.0095,0.0094,0.0092,0.0085,0.0082,0.0087,0.0076,0.0083,0.0074,0.0073,0.0064,0.0063,0.0065,0.007,0.0069,0.0055,0.0055,0.0055,0.0055,0,0,0,0,0,0,0,0.0087,0.0089,0.0103,0.0095,0.0093,0.008,0.008,0.0083,0.0079,0.0082,0.008,0.0078,0.0063,0.0065,0.0064,0.0069,0.0055,0.0055,0.0055,0.0055,0.0088,0.0089,0,0,0,0,0,0,0.0088,0.0089,0.0103,0.0103,0.0087,0.0082,0.0081,0.0089,0.0079,0.0076,0.0079,0.0077,0.0066,0.0064,0.0064,0.0085,0.0055,0.0055,0.0055,0.0087,0.0088,0.0089,0,0,0,0,0,0,0.0088,0.009,0.0104,0.0094,0.0094,0.0083,0.0092,0.0089,0.0094,0.0076,0.0073,0.0085,0.0065,0.0064,0.0077,0.0084,0.0055,0.0055,0.0086,0.0087,0.0088,0.0125,0,0,0,0,0,0,0.0088,0.0091,0.0097,0.0094,0.0095,0.0115,0.0092,0.009,0.0093,0.009,0.0081,0.0078,0.0064,0.0077,0.0077,0.0083,0.0055,0.0085,0.0086,0.0088,0.0123,0.0128,0.0132,0,0,0,0,0,0.0087,0.0108,0.0098,0.01,0.0105,0.0115,0.0115,0.0104,0.0094,0.0104,0.0099,0.0078,0.0087,0.0078,0.0078,0.0084,0.0084,0.0086,0.0088,0.0121,0.0127,0.0132,0,0,0,0,0,0,0.0102,0.0107,0.0097,0.0117,0.0116,0.0111,0.0122,0.0111,0.0116,0.0116,0.0096,0.0094,0.0105,0.0096,0.0087,0.0099,0.008,0.0082,0.0105,0.011,0.0115,0.0136,0.0055,0,0,0,0,0,0.0108,0.0124,0.0121,0.0136,0.014,0.0131,0.0134,0.0128,0.0129,0.0129,0.0121,0.0115,0.0113,0.0113,0.0112,0.0125,0.0086,0.0127,0.0132,0.0136,0.0153,0.0088,0.0087,0.0095,0.0095,0.0095,0,0,0.0118,0.0121,0.013,0.0139,0.0141,0.0161,0.0132,0.0146,0.0161,0.0128,0.015,0.0133,0.0122,0.0132,0.0136,0.0125,0.0112,0.0138,0.0141,0.0157,0.009,0.0089,0.0088,0.0097,0.0097,0.0096,0,0,0.0152,0.015,0.0179,0.0186,0.0192,0.0186,0.0193,0.0193,0.0193,0.021,0.0186,0.0177,0.0182,0.0169,0.0164,0.0195,0.0138,0.019,0.0228,0.0164,0.0163,0.0161,0.0101,0.0093,0.0191,0.0191,0.0191,0,0.0161,0.0199,0.0187,0.0218,0.0235,0.0203,0.0242,0.0236,0.0238,0.0248,0.0225,0.022,0.02,0.0209,0.0215,0.0204,0.0158,0.0206,0.0168,0.0165,0.0163,0.0102,0.0093,0.0193,0.0193,0.0193,0.0192,0,0.0221,0.025,0.0271,0.0299,0.0311,0.034,0.0333,0.0342,0.033,0.0321,0.0326,0.0289,0.029,0.0269,0.0253,0.0233,0.0202,0.0178,0.015,0.0164,0.0099,0.0089,0.0196,0.0195,0.0195,0.0194,0,0,0.0248,0.0304,0.0312,0.035,0.0362,0.0388,0.0409,0.0431,0.0453,0.0423,0.0448,0.0414,0.0382,0.0376,0.0334,0.0273,0.0202,0.0223,0.0218,0.0157,0.0056,0.0045,0.0032,0.0159,0.0158,0.0157,0.0013,0,0.0302,0.0388,0.0394,0.0471,0.052,0.0508,0.0539,0.0547,0.053,0.054,0.0485,0.0493,0.0425,0.0425,0.035,0.0244,0.018,0.0244,0.0059,0.0054,0.0036,0.0022,0.0153,0.0006,0.0003,0.0002,0.0,0,0.0359,0.0417,0.0512,0.0586,0.0607,0.0647,0.0696,0.0717,0.0705,0.0696,0.0666,0.0613,0.0545,0.0481,0.0288,0.0327,0.0208,0.0108,0.01,0.0075,0.0026,-0.0008,-0.0018,-0.0017,-0.0015,-0.0014,-0.0013,0,0.0411,0.0496,0.0584,0.061,0.0683,0.0734,0.0771,0.0778,0.0814,0.0801,0.0808,0.0706,0.0668,0.0493,0.0285,0.0284,0.0052,0.0025,-0.0097,-0.01,-0.0065,-0.0061,-0.0104,-0.0104,-0.0104,-0.0103,-0.0103,0,0.0473,0.0541,0.0626,0.0686,0.0801,0.0819,0.0917,0.0933,0.0955,0.0997,0.0902,0.0885,0.0665,0.0504,0.0307,0.0068,0.0064,-0.0088,-0.0137,-0.0046,-0.0039,-0.0073,-0.0068,-0.0109,-0.0107,-0.0106,-0.0105,0,0.0521,0.0568,0.068,0.079,0.0838,0.0924,0.1039,0.1095,0.1098,0.1143,0.115,0.1019,0.0801,0.0554,0.0265,0.0113,-0.0119,-0.0197,-0.008,-0.012,-0.0234,-0.0225,-0.0344,-0.0345,-0.0347,-0.0348,-0.0349,0,0.0566,0.0628,0.0773,0.0847,0.0911,0.1037,0.1127,0.1184,0.1235,0.1211,0.1235,0.1058,0.0933,0.0515,0.0248,-0.0126,-0.0173,-0.0278,-0.0255,-0.0223,-0.0259,-0.0247,-0.0236,-0.0351,-0.0351,-0.0351,-0.0352,0,0.0642,0.068,0.0765,0.0934,0.1053,0.1188,0.1313,0.135,0.139,0.1392,0.1301,0.1091,0.0844,0.0517,0.023,-0.0039,-0.0205,-0.0293,-0.0292,-0.0271,-0.0233,-0.0264,-0.0252,-0.0356,-0.0356,-0.0355,-0.0355,0,0.0696,0.0744,0.0852,0.0998,0.1149,0.1286,0.1347,0.1402,0.1454,0.1408,0.137,0.11,0.0955,0.056,0.0287,0.0026,-0.0036,-0.0099,-0.0109,-0.0107,0.0002,0.0088,0.0022,0,0,0,0,0,0.0747,0.0781,0.091,0.1064,0.1218,0.1316,0.1447,0.1482,0.1502,0.1455,0.1416,0.1182,0.0779,0.0602,0.0337,0.0247,-0.009,-0.007,-0.0169,-0.0382,-0.0376,-0.029,0,0,0,0,0,0,0.0765,0.0855,0.09,0.1099,0.1207,0.1392,0.147,0.1489,0.1457,0.1424,0.1209,0.1125,0.0725,0.0921,0.0331,0.0253,0.0158,-0.0254,-0.0259,-0.0385,-0.038,-0.0376,-0.0285,0,0,0,0,0]}]]